﻿測定場所 (Monitoring sites),日付 (Measurement date),時間 (Measurement time),線量率 最大値 (max) μGy/h,線量率 最小値 (min) μGy/h,線量率 平均値 (average) μGy/h,
江戸川 (Edogawa),2019-12-08,23:01～24:00,0.0464,0.0402,0.0438,
江戸川 (Edogawa),2019-12-08,22:01～23:00,0.0481,0.0406,0.0439,
江戸川 (Edogawa),2019-12-08,21:01～22:00,0.0468,0.0413,0.0436,
江戸川 (Edogawa),2019-12-08,20:01～21:00,0.0474,0.0412,0.0438,
江戸川 (Edogawa),2019-12-08,19:01～20:00,0.0472,0.0404,0.0437,
江戸川 (Edogawa),2019-12-08,18:01～19:00,0.0475,0.0402,0.0438,
江戸川 (Edogawa),2019-12-08,17:01～18:00,0.0475,0.0407,0.0441,
江戸川 (Edogawa),2019-12-08,16:01～17:00,0.0471,0.0417,0.0444,
江戸川 (Edogawa),2019-12-08,15:01～16:00,0.0481,0.0416,0.0447,
江戸川 (Edogawa),2019-12-08,14:01～15:00,0.0475,0.0416,0.0449,
江戸川 (Edogawa),2019-12-08,13:01～14:00,0.0471,0.0414,0.0444,
江戸川 (Edogawa),2019-12-08,12:01～13:00,0.0472,0.0428,0.0446,
江戸川 (Edogawa),2019-12-08,11:01～12:00,0.0478,0.0422,0.0445,
江戸川 (Edogawa),2019-12-08,10:01～11:00,0.0472,0.0416,0.0445,
江戸川 (Edogawa),2019-12-08,09:01～10:00,0.0482,0.0408,0.0442,
江戸川 (Edogawa),2019-12-08,08:01～09:00,0.0480,0.0410,0.0439,
江戸川 (Edogawa),2019-12-08,07:01～08:00,0.0489,0.0412,0.0444,
江戸川 (Edogawa),2019-12-08,06:01～07:00,0.0474,0.0405,0.0443,
江戸川 (Edogawa),2019-12-08,05:01～06:00,0.0473,0.0422,0.0448,
江戸川 (Edogawa),2019-12-08,04:01～05:00,0.0486,0.0411,0.0447,
江戸川 (Edogawa),2019-12-08,03:01～04:00,0.0499,0.0415,0.0446,
江戸川 (Edogawa),2019-12-08,02:01～03:00,0.0484,0.0408,0.0441,
江戸川 (Edogawa),2019-12-08,01:01～02:00,0.0471,0.0408,0.0441,
江戸川 (Edogawa),2019-12-08,00:01～01:00,0.0459,0.0407,0.0438,
江戸川 (Edogawa),2019-12-07,23:01～24:00,0.0467,0.0412,0.0438,
江戸川 (Edogawa),2019-12-07,22:01～23:00,0.0478,0.0405,0.0439,
江戸川 (Edogawa),2019-12-07,21:01～22:00,0.0478,0.0406,0.0433,
江戸川 (Edogawa),2019-12-07,20:01～21:00,0.0467,0.0401,0.0431,
江戸川 (Edogawa),2019-12-07,19:01～20:00,0.0461,0.0398,0.0429,
江戸川 (Edogawa),2019-12-07,18:01～19:00,0.0475,0.0400,0.0433,
江戸川 (Edogawa),2019-12-07,17:01～18:00,0.0475,0.0406,0.0435,
江戸川 (Edogawa),2019-12-07,16:01～17:00,0.0472,0.0408,0.0443,
江戸川 (Edogawa),2019-12-07,15:01～16:00,0.0514,0.0419,0.0469,
江戸川 (Edogawa),2019-12-07,14:01～15:00,0.0554,0.0470,0.0507,
江戸川 (Edogawa),2019-12-07,13:01～14:00,0.0576,0.0481,0.0513,
江戸川 (Edogawa),2019-12-07,12:01～13:00,0.0565,0.0489,0.0524,
江戸川 (Edogawa),2019-12-07,11:01～12:00,0.0578,0.0496,0.0537,
江戸川 (Edogawa),2019-12-07,10:01～11:00,0.0562,0.0475,0.0521,
江戸川 (Edogawa),2019-12-07,09:01～10:00,0.0511,0.0454,0.0480,
江戸川 (Edogawa),2019-12-07,08:01～09:00,0.0529,0.0466,0.0494,
江戸川 (Edogawa),2019-12-07,07:01～08:00,0.0534,0.0438,0.0474,
江戸川 (Edogawa),2019-12-07,06:01～07:00,0.0479,0.0417,0.0454,
江戸川 (Edogawa),2019-12-07,05:01～06:00,0.0488,0.0409,0.0452,
江戸川 (Edogawa),2019-12-07,04:01～05:00,0.0498,0.0416,0.0446,
江戸川 (Edogawa),2019-12-07,03:01～04:00,0.0479,0.0420,0.0441,
江戸川 (Edogawa),2019-12-07,02:01～03:00,0.0470,0.0408,0.0439,
江戸川 (Edogawa),2019-12-07,01:01～02:00,0.0482,0.0415,0.0444,
江戸川 (Edogawa),2019-12-07,00:01～01:00,0.0471,0.0419,0.0446,
江戸川 (Edogawa),2019-12-06,23:01～24:00,0.0480,0.0414,0.0440,
江戸川 (Edogawa),2019-12-06,22:01～23:00,0.0479,0.0416,0.0445,
江戸川 (Edogawa),2019-12-06,21:01～22:00,0.0478,0.0403,0.0443,
江戸川 (Edogawa),2019-12-06,20:01～21:00,0.0481,0.0411,0.0441,
江戸川 (Edogawa),2019-12-06,19:01～20:00,0.0497,0.0410,0.0439,
江戸川 (Edogawa),2019-12-06,18:01～19:00,0.0473,0.0408,0.0441,
江戸川 (Edogawa),2019-12-06,17:01～18:00,0.0486,0.0401,0.0443,
江戸川 (Edogawa),2019-12-06,16:01～17:00,0.0473,0.0410,0.0444,
江戸川 (Edogawa),2019-12-06,15:01～16:00,0.0481,0.0423,0.0448,
江戸川 (Edogawa),2019-12-06,14:01～15:00,0.0486,0.0413,0.0444,
江戸川 (Edogawa),2019-12-06,13:01～14:00,0.0478,0.0414,0.0442,
江戸川 (Edogawa),2019-12-06,12:01～13:00,0.0475,0.0419,0.0443,
江戸川 (Edogawa),2019-12-06,11:01～12:00,0.0476,0.0406,0.0446,
江戸川 (Edogawa),2019-12-06,10:01～11:00,0.0471,0.0411,0.0444,
江戸川 (Edogawa),2019-12-06,09:01～10:00,0.0479,0.0412,0.0447,
江戸川 (Edogawa),2019-12-06,08:01～09:00,0.0476,0.0417,0.0447,
江戸川 (Edogawa),2019-12-06,07:01～08:00,0.0472,0.0424,0.0449,
江戸川 (Edogawa),2019-12-06,06:01～07:00,0.0473,0.0411,0.0447,
江戸川 (Edogawa),2019-12-06,05:01～06:00,0.0477,0.0416,0.0442,
江戸川 (Edogawa),2019-12-06,04:01～05:00,0.0486,0.0400,0.0443,
江戸川 (Edogawa),2019-12-06,03:01～04:00,0.0475,0.0403,0.0440,
江戸川 (Edogawa),2019-12-06,02:01～03:00,0.0472,0.0405,0.0438,
江戸川 (Edogawa),2019-12-06,01:01～02:00,0.0470,0.0414,0.0440,
江戸川 (Edogawa),2019-12-06,00:01～01:00,0.0476,0.0399,0.0443,
江戸川 (Edogawa),2019-12-05,23:01～24:00,0.0468,0.0405,0.0441,
江戸川 (Edogawa),2019-12-05,22:01～23:00,0.0473,0.0412,0.0442,
江戸川 (Edogawa),2019-12-05,21:01～22:00,0.0471,0.0412,0.0441,
江戸川 (Edogawa),2019-12-05,20:01～21:00,0.0490,0.0420,0.0442,
江戸川 (Edogawa),2019-12-05,19:01～20:00,0.0475,0.0419,0.0443,
江戸川 (Edogawa),2019-12-05,18:01～19:00,0.0473,0.0409,0.0443,
江戸川 (Edogawa),2019-12-05,17:01～18:00,0.0470,0.0403,0.0443,
江戸川 (Edogawa),2019-12-05,16:01～17:00,0.0478,0.0405,0.0448,
江戸川 (Edogawa),2019-12-05,15:01～16:00,0.0488,0.0412,0.0451,
江戸川 (Edogawa),2019-12-05,14:01～15:00,0.0472,0.0419,0.0449,
江戸川 (Edogawa),2019-12-05,13:01～14:00,0.0481,0.0421,0.0451,
江戸川 (Edogawa),2019-12-05,12:01～13:00,0.0485,0.0423,0.0450,
江戸川 (Edogawa),2019-12-05,11:01～12:00,0.0478,0.0419,0.0447,
江戸川 (Edogawa),2019-12-05,10:01～11:00,0.0489,0.0419,0.0446,
江戸川 (Edogawa),2019-12-05,09:01～10:00,0.0471,0.0401,0.0443,
江戸川 (Edogawa),2019-12-05,08:01～09:00,0.0473,0.0417,0.0440,
江戸川 (Edogawa),2019-12-05,07:01～08:00,0.0469,0.0401,0.0438,
江戸川 (Edogawa),2019-12-05,06:01～07:00,0.0472,0.0407,0.0439,
江戸川 (Edogawa),2019-12-05,05:01～06:00,0.0463,0.0411,0.0438,
江戸川 (Edogawa),2019-12-05,04:01～05:00,0.0471,0.0404,0.0439,
江戸川 (Edogawa),2019-12-05,03:01～04:00,0.0478,0.0403,0.0440,
江戸川 (Edogawa),2019-12-05,02:01～03:00,0.0465,0.0410,0.0437,
江戸川 (Edogawa),2019-12-05,01:01～02:00,0.0478,0.0411,0.0439,
江戸川 (Edogawa),2019-12-05,00:01～01:00,0.0468,0.0411,0.0438,
江戸川 (Edogawa),2019-12-04,23:01～24:00,0.0467,0.0410,0.0435,
江戸川 (Edogawa),2019-12-04,22:01～23:00,0.0480,0.0404,0.0440,
江戸川 (Edogawa),2019-12-04,21:01～22:00,0.0470,0.0419,0.0439,
江戸川 (Edogawa),2019-12-04,20:01～21:00,0.0471,0.0411,0.0442,
江戸川 (Edogawa),2019-12-04,19:01～20:00,0.0468,0.0413,0.0441,
江戸川 (Edogawa),2019-12-04,18:01～19:00,0.0471,0.0404,0.0438,
江戸川 (Edogawa),2019-12-04,17:01～18:00,0.0469,0.0413,0.0442,
江戸川 (Edogawa),2019-12-04,16:01～17:00,0.0470,0.0410,0.0443,
江戸川 (Edogawa),2019-12-04,15:01～16:00,0.0479,0.0412,0.0444,
江戸川 (Edogawa),2019-12-04,14:01～15:00,0.0481,0.0409,0.0446,
江戸川 (Edogawa),2019-12-04,13:01～14:00,0.0483,0.0406,0.0447,
江戸川 (Edogawa),2019-12-04,12:01～13:00,0.0491,0.0430,0.0449,
江戸川 (Edogawa),2019-12-04,11:01～12:00,0.0486,0.0425,0.0448,
江戸川 (Edogawa),2019-12-04,10:01～11:00,0.0479,0.0424,0.0447,
江戸川 (Edogawa),2019-12-04,09:01～10:00,0.0480,0.0408,0.0446,
江戸川 (Edogawa),2019-12-04,08:01～09:00,0.0477,0.0411,0.0445,
江戸川 (Edogawa),2019-12-04,07:01～08:00,0.0476,0.0417,0.0441,
江戸川 (Edogawa),2019-12-04,06:01～07:00,0.0478,0.0412,0.0445,
江戸川 (Edogawa),2019-12-04,05:01～06:00,0.0491,0.0407,0.0443,
江戸川 (Edogawa),2019-12-04,04:01～05:00,0.0474,0.0408,0.0439,
江戸川 (Edogawa),2019-12-04,03:01～04:00,0.0473,0.0401,0.0438,
江戸川 (Edogawa),2019-12-04,02:01～03:00,0.0467,0.0404,0.0437,
江戸川 (Edogawa),2019-12-04,01:01～02:00,0.0460,0.0418,0.0437,
江戸川 (Edogawa),2019-12-04,00:01～01:00,0.0463,0.0407,0.0435,
江戸川 (Edogawa),2019-12-03,23:01～24:00,0.0467,0.0416,0.0436,
江戸川 (Edogawa),2019-12-03,22:01～23:00,0.0467,0.0399,0.0436,
江戸川 (Edogawa),2019-12-03,21:01～22:00,0.0474,0.0409,0.0441,
江戸川 (Edogawa),2019-12-03,20:01～21:00,0.0461,0.0399,0.0436,
江戸川 (Edogawa),2019-12-03,19:01～20:00,0.0462,0.0402,0.0437,
江戸川 (Edogawa),2019-12-03,18:01～19:00,0.0491,0.0418,0.0441,
江戸川 (Edogawa),2019-12-03,17:01～18:00,0.0481,0.0400,0.0442,
江戸川 (Edogawa),2019-12-03,16:01～17:00,0.0476,0.0414,0.0439,
江戸川 (Edogawa),2019-12-03,15:01～16:00,0.0468,0.0418,0.0444,
江戸川 (Edogawa),2019-12-03,14:01～15:00,0.0470,0.0419,0.0447,
江戸川 (Edogawa),2019-12-03,13:01～14:00,0.0486,0.0421,0.0446,
江戸川 (Edogawa),2019-12-03,12:01～13:00,0.0485,0.0408,0.0446,
江戸川 (Edogawa),2019-12-03,11:01～12:00,0.0475,0.0403,0.0442,
江戸川 (Edogawa),2019-12-03,10:01～11:00,0.0468,0.0416,0.0443,
江戸川 (Edogawa),2019-12-03,09:01～10:00,0.0483,0.0411,0.0438,
江戸川 (Edogawa),2019-12-03,08:01～09:00,0.0477,0.0409,0.0441,
江戸川 (Edogawa),2019-12-03,07:01～08:00,0.0469,0.0411,0.0440,
江戸川 (Edogawa),2019-12-03,06:01～07:00,0.0492,0.0435,0.0463,
江戸川 (Edogawa),2019-12-03,05:01～06:00,0.0496,0.0406,0.0447,
江戸川 (Edogawa),2019-12-03,04:01～05:00,0.0459,0.0408,0.0434,
江戸川 (Edogawa),2019-12-03,03:01～04:00,0.0465,0.0411,0.0440,
江戸川 (Edogawa),2019-12-03,02:01～03:00,0.0472,0.0408,0.0439,
江戸川 (Edogawa),2019-12-03,01:01～02:00,0.0468,0.0409,0.0440,
江戸川 (Edogawa),2019-12-03,00:01～01:00,0.0472,0.0404,0.0437,
江戸川 (Edogawa),2019-12-02,23:01～24:00,0.0479,0.0406,0.0439,
江戸川 (Edogawa),2019-12-02,22:01～23:00,0.0490,0.0408,0.0439,
江戸川 (Edogawa),2019-12-02,21:01～22:00,0.0476,0.0413,0.0440,
江戸川 (Edogawa),2019-12-02,20:01～21:00,0.0478,0.0407,0.0441,
江戸川 (Edogawa),2019-12-02,19:01～20:00,0.0464,0.0404,0.0438,
江戸川 (Edogawa),2019-12-02,18:01～19:00,0.0480,0.0406,0.0439,
江戸川 (Edogawa),2019-12-02,17:01～18:00,0.0478,0.0417,0.0443,
江戸川 (Edogawa),2019-12-02,16:01～17:00,0.0478,0.0423,0.0452,
江戸川 (Edogawa),2019-12-02,15:01～16:00,0.0501,0.0420,0.0463,
江戸川 (Edogawa),2019-12-02,14:01～15:00,0.0513,0.0403,0.0458,
江戸川 (Edogawa),2019-12-02,13:01～14:00,0.0529,0.0457,0.0490,
江戸川 (Edogawa),2019-12-02,12:01～13:00,0.0545,0.0475,0.0511,
江戸川 (Edogawa),2019-12-02,11:01～12:00,0.0543,0.0448,0.0496,
江戸川 (Edogawa),2019-12-02,10:01～11:00,0.0530,0.0444,0.0480,
江戸川 (Edogawa),2019-12-02,09:01～10:00,0.0480,0.0420,0.0453,
江戸川 (Edogawa),2019-12-02,08:01～09:00,0.0483,0.0416,0.0450,
江戸川 (Edogawa),2019-12-02,07:01～08:00,0.0473,0.0415,0.0444,
江戸川 (Edogawa),2019-12-02,06:01～07:00,0.0480,0.0414,0.0444,
江戸川 (Edogawa),2019-12-02,05:01～06:00,0.0493,0.0419,0.0447,
江戸川 (Edogawa),2019-12-02,04:01～05:00,0.0497,0.0423,0.0459,
江戸川 (Edogawa),2019-12-02,03:01～04:00,0.0491,0.0417,0.0455,
江戸川 (Edogawa),2019-12-02,02:01～03:00,0.0489,0.0414,0.0448,
江戸川 (Edogawa),2019-12-02,01:01～02:00,0.0480,0.0417,0.0449,
江戸川 (Edogawa),2019-12-02,00:01～01:00,0.0478,0.0412,0.0443,
